Location: Unspecified
(32.7700°N, 0.0000°E)
Time: 23:51:33
(UTC+00:00)

Meteor 1-19 Rocket - Visible Passes

Search period start: 04 April 2026 00:00
Search period end: 14 April 2026 00:00
Orbit: 805 x 927 km, 81.2° (Epoch: 29 March)

Date Brightness Start Highest point End Pass type
(mag) Time Alt. Az. Time Alt. Az. Time Alt. Az.
4 Apr 6.6 03:29:48 10° SE 03:33:35 20° E 03:37:22 10° NE visible
4 Apr 4.7 05:11:31 10° SW 05:16:29 37° WNW 05:21:28 10° N visible
5 Apr 6.5 03:22:21 10° SE 03:26:10 20° E 03:29:58 10° NE visible
5 Apr 4.7 05:04:07 10° SW 05:09:04 37° WNW 05:14:02 10° N visible
6 Apr 6.5 03:14:54 10° SE 03:18:44 20° E 03:22:33 10° NE visible
6 Apr 4.7 04:56:42 10° SW 05:01:38 37° WNW 05:06:35 10° N visible
7 Apr 6.4 03:07:27 10° SE 03:11:18 20° E 03:15:08 10° NE visible
7 Apr 4.7 04:49:17 10° SW 04:54:12 36° WNW 04:59:10 10° N visible
8 Apr 6.4 03:00:01 10° SE 03:03:52 20° E 03:07:44 10° NE visible
8 Apr 4.7 04:42:00 11° SW 04:46:47 36° WNW 04:51:43 10° N visible
9 Apr 6.3 02:53:05 12° SE 02:56:26 21° E 03:00:19 10° NE visible
9 Apr 4.7 04:35:28 15° SW 04:39:21 36° WNW 04:44:18 10° N visible
10 Apr 6.3 02:46:27 15° ESE 02:49:00 21° E 02:52:55 10° NE visible
10 Apr 4.7 04:28:50 20° SW 04:31:56 35° WNW 04:36:51 10° N visible
11 Apr 6.2 02:39:43 18° ESE 02:41:33 21° E 02:45:30 10° NE visible
11 Apr 4.7 04:22:05 24° WSW 04:24:30 35° WNW 04:29:25 10° NNW visible
12 Apr 6.1 02:32:54 20° ESE 02:34:08 21° E 02:38:06 10° NE visible
12 Apr 4.7 04:15:15 27° WSW 04:17:04 35° WNW 04:21:59 10° NNW visible
13 Apr 6.1 02:26:00 21° E 02:26:42 21° E 02:30:41 10° NE visible
13 Apr 4.8 04:08:22 30° WSW 04:09:39 34° WNW 04:14:33 10° NNW visible
